Café des Stands
Index du forums | Index des forums | Recherche | Identification
Ring
Posté par stupid  Profil (IP enregistrée), le 03/05/09 23:05:04


Toujours pas de temps sur le ring ?


Sujet Vues Ecrit par Posté le
  Focus RS : 300 ch et plus... (topic fermé) 28041 Kobalt 10/12/08 14:18:14
  C'est le prix 1186 Drool1 10/12/08 14:24:50
  Oui, c'est le prix en France (nt) 930 Kobalt 10/12/08 14:31:29
  Pas vraiment 809 olivierrs 11/12/08 19:47:00
  pas cher 902 RickyRS1  Membre RS-Team 10/12/08 14:38:10
  Une bombe... 986 Bubule50 10/12/08 14:38:57
  Bon ben on a la Sportive de l'année 2009 1015 Loïc  Membre RS-Team 10/12/08 15:01:25
  En vert 800 Drool1 10/12/08 15:21:04
  Pas que du vert... 859 Bubule50 10/12/08 16:07:40
  La GTR... 765 Ferry 12/12/08 13:15:34
  Hum je suis pas convaincu 646 Drool1 12/12/08 13:36:08
  6500 tr/min pour la PMax 908 Baltus 10/12/08 15:56:29
  Eco taxe 816 RS Family  Membre RS-Team 10/12/08 18:52:51
  Un peu trop 808 Boooo 10/12/08 15:58:30
  Trois couleurs seulement 849 Kobalt 10/12/08 16:24:30
  Et ben ils 671 Drool1 10/12/08 16:27:31
  j'ai du mal... 767 LoïcRS2  Membre RS-Team 10/12/08 16:06:43
  c est sur 594 rudylo 10/12/08 16:15:08
  Ouai mais 662 Drool1 10/12/08 16:26:57
  Tout le monde disait la meme chose 685 Shreck [Rs2]  Membre RS-Team 11/12/08 08:56:12
  sympa! 591 spat 10/12/08 17:04:52
  Ben la megane 784 Drool1 10/12/08 17:37:52
  Ils font très fort sur le prix 643 ManRS 10/12/08 18:23:25
  belle auto 629 Julien 10/12/08 18:25:50
  Pas mal du tout 597 clio2lrs  Membre RS-Team 10/12/08 18:30:07
  sympa 591 Romain [RS2]  Membre RS-Team 10/12/08 18:33:16
  Communiqué de presse 790 RS Family  Membre RS-Team 10/12/08 18:50:18
  en bleu 772 V6RIUS-BEN 10/12/08 19:07:45
  marche pas 587 Julien 10/12/08 19:39:32
  en photos 746 cliofan 10/12/08 20:52:09
  D'autres photos en bleu 788 aldo 10/12/08 21:50:34
  pas mal 599 anthonyRS3  Membre RS-Team 10/12/08 22:19:04
  et encore d'autres 618 cliofan 11/12/08 13:23:53
  Ici ils 790 Alexkekedu71 10/12/08 23:34:57
  Ils ont vite fait le changement 701 Alexkekedu71 10/12/08 23:56:07
  hestétiquement réussie 665 Snoop30 11/12/08 11:28:56
  Esperons 632 Drool1 11/12/08 11:35:17
  Ca existe même plus la C4 180 ch 698 Kobalt 11/12/08 12:12:10
  N'importes quoi (bis)... 626 RS2ni  Membre RS-Team 11/12/08 13:14:21
  Ah ouai 581 Drool1 11/12/08 13:54:51
  Ah oué 597 Romain [RS2]  Membre RS-Team 11/12/08 14:34:11
  Comparaison... 740 etienne  Membre RS-Team 11/12/08 17:26:37
  Je ne comprends pas... 694 Obi-1  Membre RS-Team 11/12/08 17:32:11
  4rm 674 etienne  Membre RS-Team 11/12/08 17:41:08
  Completement differend 664 Drool1 11/12/08 17:32:35
  Courbes moteur 789 olivierrs 11/12/08 20:04:29
  Effectivement... 611 Obi-1  Membre RS-Team 11/12/08 20:06:51
  bouuu... 655 LoïcRS2  Membre RS-Team 11/12/08 21:13:31
  I ... 628 bloovie 12/12/08 15:48:27
  Info & Pictures 1148 howard91 12/12/08 21:59:03
  Olala j'adore en blanc 490 Alexkekedu71 12/12/08 22:35:12
  La blanche!!! 689 ManRS 12/12/08 22:50:01
  La blanche 638 howard91 12/12/08 23:26:21
  1T500 je comprends mieux 706 Loïc  Membre RS-Team 13/12/08 10:26:06
  disons qu'elle aura le potentiel 597 twixx 13/12/08 10:57:32
  Elles sont différentes 667 olivierrs 14/12/08 12:07:01
  le problème... 616 C3RS 14/12/08 14:40:24
  HUm, j'hésite... 707 xav 13/12/08 12:49:38
  Photoshop 795 Julien [Trophy] 14/12/08 20:41:00
  de paris plutot 623 m362 14/12/08 22:04:14
  200 kg de plus qu'une R26-R... 699 Pedro Lito 19/12/08 22:16:12
  et 75 ch de plus 631 Loïc  Membre RS-Team 20/12/08 14:14:44
  R26.R vs FOCUS 703 stupid 20/12/08 18:47:03
  sur le Ring 702 330ci 21/12/08 14:23:09
  Caractéristiques essieu avant 3243 julien RS1VD 25/12/08 17:29:06
  Rendez-vous le 31 mars 565 cliofan 26/03/09 19:50:50
  à mon avis le record va être battu 477 Loïc  Membre RS-Team 26/03/09 19:53:26
  L'espoir fait vivre 525 aldo 26/03/09 20:32:56
  Les paris sont ouverts 586 stupid 26/03/09 22:05:14
  l'idée 476 Romain [RS2]  Membre RS-Team 27/03/09 11:25:43
  oui mais la megane est en semi slicks 595 Loïc  Membre RS-Team 27/03/09 11:48:48
  Tant que 533 AlexV 27/03/09 12:04:59
  oui mais alors le record ne sera pas homologué 529 Loïc  Membre RS-Team 27/03/09 12:08:01
  Oui enfin 572 Kobalt 27/03/09 18:35:20
  Ils visent 8.10 chez Ford 528 Kobalt 27/03/09 18:37:06
  Frs / ring 544 stupid 31/03/09 18:34:10
  En effet... 540 RST_Taliban 31/03/09 19:49:38
  en tout cas... 559 C3RS 31/03/09 20:05:29
  photos HD sur caradisiac..... 782 Gerald la poste 19/12/08 16:48:19
  Le plus chiant 709 Drool1 19/12/08 16:52:20
  Couple 658 Kique 20/12/08 15:46:10
  bof oui 645 Glambee 20/12/08 21:12:00
  pk comparer avec la R26R? 746 maboul222 21/12/08 16:12:00
  parce que 703 330ci 21/12/08 17:59:24
  mouais 679 maboul222 21/12/08 19:20:51
  certes ce n'est pas une berline 637 330ci 22/12/08 15:59:56
  je comprends 646 maboul222 22/12/08 20:33:28
  même pas 656 Romain [RS2]  Membre RS-Team 24/12/08 20:03:01
  stockage/dispatching Europe. 741 C3RS 04/01/09 23:20:10
  Un petit avant gout........ 1015 baboonst170 18/02/09 22:51:55
  Ca promet... 687 Obi-1  Membre RS-Team 18/02/09 22:54:23
  Outch! 647 RS2ni  Membre RS-Team 18/02/09 23:41:09
  rooooo 592 blaine 19/02/09 01:13:44
  va y avoir du sport 659 jordi  Membre RS-Team 19/02/09 06:30:04
  trop du ballon 520 Cali 19/02/09 10:20:56
  J'ai choisi ma prochaine.... 677 RickyRS1  Membre RS-Team 19/02/09 10:35:44
  à mon avis tu vas avoir du mal à en trouver 640 Loïc  Membre RS-Team 19/02/09 10:40:08
  hein ???!! 594 lalie  Membre RS-Team 19/02/09 10:49:29
  on verra 575 RickyRS1  Membre RS-Team 19/02/09 12:01:53
  yep 636 Julien 19/02/09 10:43:48
  Alors on me cache des choses 606 Loïc  Membre RS-Team 19/02/09 11:08:06
  rodage aux petis oignons 610 Julien 19/02/09 11:39:26
  si tu vas 583 RickyRS1  Membre RS-Team 19/02/09 12:01:15
  pffffff faut que j'aille chez renault 559 Loïc  Membre RS-Team 19/02/09 19:58:07
  Ils vont te dire 558 lalie  Membre RS-Team 19/02/09 20:13:47
  FRS vs MRSR 835 Dillon 19/02/09 12:24:20
  Essai de la FRS au dessus de Nice ! 852 ST39 19/02/09 12:40:36
  Je pense ... 678 Dillon 19/02/09 12:48:12
  Surtout que la R a été chronométrée plusieurs fois 618 Loïc  Membre RS-Team 19/02/09 16:29:09
  Just for .... 695 Dillon 19/02/09 12:54:34
  Pourtant le nurburgring 728 Drool1 19/02/09 14:13:05
  et pourtant ... 643 Dillon 19/02/09 14:24:42
  FRS vs M3RS 726 stupid 19/02/09 15:15:20
  chacun 672 Romain [RS2]  Membre RS-Team 19/02/09 15:18:11
  Oui faut attendre 487 Drool1 19/02/09 15:48:58
  tout à fait d'accord 575 maboul222 20/02/09 10:29:57
  qques chiffres 631 stupid 20/02/09 10:57:34
  Ah oui 572 Drool1 20/02/09 11:17:54
  Test 634 Dillon 20/02/09 15:12:25
  Ne pas se fier qu'à la puissance max... 637 olivierrs 19/02/09 20:57:45
  Bof 564 ST39 19/02/09 23:42:42
  Oui 602 olive 19/02/09 23:47:16
  ... 613 olivierrs 21/02/09 20:30:05
  erreur dans la formule 542 maboul222 23/02/09 16:55:21
  tu confonds force et puissance... 573 olivierrs 24/02/09 20:23:56
  oups 458 maboul222 25/02/09 10:44:48
  De toute facon 570 Drool1 20/02/09 10:05:53
  à moins que chez 455 maboul222 20/02/09 16:12:59
  Pourquoi pas 565 olivierrs 21/02/09 20:34:17
  ouais, avec un 520 maboul222 23/02/09 16:53:30
  teaser sky motoring 783 Cedric224 19/02/09 16:55:02
  r 26 vs FRS 855 AFX 19/02/09 18:14:54
  la noir est un proto 725 Cedric224 19/02/09 18:23:50
  Pour moi la RS la plus rapide 715 KurtPanzR[RS2004] 19/02/09 22:58:20
  On y est...mais, pas de comparatif !!!?!!! 649 C3RS 22/02/09 18:18:49
  next week ! 636 ST39 22/02/09 19:45:32
  Dommage 603 RS Family  Membre RS-Team 22/02/09 19:56:09
  C'est clair 597 cliofan 22/02/09 21:14:47
  faudra 590 stephanois63  Membre RS-Team 22/02/09 21:25:12
  j'ai pas tout compris 545 maboul222 23/02/09 10:24:58
  Et la suite ... sur le même terrain ! 691 C3RS 24/02/09 16:00:03
  En fait 595 ST39 24/02/09 16:04:32
  aperçue aujourd'hui 787 S-XVI 24/02/09 20:30:54
  Ford, c'est pas des bêtes... 703 C3RS 24/02/09 23:18:31
  Normal 630 Kobalt 24/02/09 23:21:48
  ah ok... pareil pour l'A5 cabrio ! 610 S-XVI 24/02/09 23:55:52
  test jason plato 670 mondochawan 01/03/09 20:22:55
  vu une aussi 513 Jaja[RS2] 03/03/09 11:55:22
  Déjà une Focus RS au tas!!! 770 captainkuru 03/03/09 07:39:59
  hum 668 Gmac 03/03/09 08:00:21
  Vue au salon de Genève 548 cliofan 05/03/09 18:21:09
  vraiment attirante cette FRS 582 Antoine 05/03/09 18:23:19
  Tu parles... 591 captainkuru 05/03/09 18:35:22
  Rallye Sport 579 Antoine 05/03/09 18:39:12
  Merki!!! 564 captainkuru 05/03/09 18:42:58
  En photos 625 cliofan 05/03/09 19:47:49
  FRS vs R26R vs STi 848 olivierrs 05/03/09 19:08:57
  superbe reportage 648 RickyRS1  Membre RS-Team 05/03/09 19:56:46
  haïe ! 638 Snoop30 06/03/09 09:28:09
  non loin de là 569 RickyRS1  Membre RS-Team 06/03/09 12:05:22
  puis surtout 611 jordi  Membre RS-Team 06/03/09 12:08:28
  C'est pas fameux cette FRS!!! 676 captainkuru 06/03/09 08:46:07
  C'est où que tu as lu ça ? 611 olivierrs 06/03/09 17:29:22
  En même temps 594 Kobalt 06/03/09 19:24:59
  hum hum... 600 etienne  Membre RS-Team 06/03/09 19:29:23
  Oui et 538 Kobalt 06/03/09 19:37:34
  en même temps... 580 etienne  Membre RS-Team 06/03/09 19:57:47
  tu es sur la liste 393 Romain [RS2]  Membre RS-Team 13/03/09 16:15:33
  Simir ?? 590 Romain [RS2]  Membre RS-Team 06/03/09 17:55:25
  lol 572 stephanois63  Membre RS-Team 07/03/09 10:46:12
  FRS vs R26R 731 stupid 06/03/09 22:18:27
  C'est bien ce que je voulais dire 357 captainkuru 07/03/09 12:04:55
  limite du comparatif.. 582 dante 07/03/09 17:14:41
  Video 677 ST39 07/03/09 17:41:00
  Comparaison 584 rhyllo 07/03/09 20:29:24
  La nouvelle référence du segment 636 olivierrs 13/03/09 15:42:40
  ca a l'air très prometteur 569 Loïc  Membre RS-Team 13/03/09 15:52:41
  Ben pour avoir une concurente 567 Drool1 13/03/09 15:57:29
  et contre une Ae86 en descente 578 Loïc  Membre RS-Team 13/03/09 16:00:50
  avec ou sans 566 jordi  Membre RS-Team 13/03/09 16:01:56
  ce n'est qu'un détail 540 Loïc  Membre RS-Team 13/03/09 16:06:20
  Ae86 454 Romain [RS2]  Membre RS-Team 13/03/09 16:13:59
  je crois que t'as un problème avec tes yeux 539 Loïc  Membre RS-Team 13/03/09 16:17:19
  Faudrait attendre un vrai comparos ... 550 GIL [RAGNOT] 13/03/09 16:30:49
  Arf 567 Romain [RS2]  Membre RS-Team 13/03/09 16:16:09
  Ben... 562 olivierrs 13/03/09 17:42:26
  ouais en tous cas .... 573 Madpierrot[RS1] 13/03/09 16:26:10
  Tu devrais lire l'article 527 olivierrs 13/03/09 17:45:09
  Tant mieux alors !... 559 Madpierrot[RS1] 13/03/09 18:13:00
  y'a t-il une fiche technique un peu détaillée ? 562 Jérome  Membre RS-Team 13/03/09 17:10:17
  Que voudrais-tu savoir ? 547 olivierrs 13/03/09 17:47:13
  Dans EVO UK, c'est un peu différent 644 xav 13/03/09 17:29:08
  Très sympa le 638 RS Family  Membre RS-Team 13/03/09 18:03:41
  Un jour... 616 RickyRS1  Membre RS-Team 13/03/09 18:27:59
  Un jour 548 RS Family  Membre RS-Team 13/03/09 19:38:05
  regarde là 550 RickyRS1  Membre RS-Team 13/03/09 19:48:09
  Trop de demandes ? 537 olivierrs 13/03/09 19:54:56
  Oui mais regardes les R26-r 561 clio2lrs  Membre RS-Team 13/03/09 20:34:49
  C'est un travail de tous les jours 554 RS Family  Membre RS-Team 13/03/09 19:58:18
  Il a toujours pas remplis le bon de commande 562 clio2lrs  Membre RS-Team 13/03/09 20:33:46
  Hankook V12 568 RS Family  Membre RS-Team 14/03/09 00:54:55
  Oui je serais curieux de savoir 589 clio2lrs  Membre RS-Team 14/03/09 09:15:50
  une verte, une blanche au même prix ? 557 S-XVI 14/03/09 11:45:37
  Je te le souhaite 571 clio2lrs  Membre RS-Team 13/03/09 20:37:06
  Alors là.... 631 Bill 13/03/09 18:29:46
  Comparatif avec R26R dans auto-journal du 12/03 652 mondochawan 13/03/09 20:25:40
  Ring 8mn10 655 Cedric224 14/03/09 13:46:42
  @ Cedric224 639 RST_Taliban 14/03/09 16:50:16
  Nurburg... 563 stupid 14/03/09 19:37:07
  oui 562 jordi  Membre RS-Team 14/03/09 19:44:23
  excellent temps... 554 RST_Taliban 14/03/09 21:40:23
  Un 8.13 559 Greg_106xs 14/03/09 23:17:59
  hey toi!!! 462 tOO 06/04/09 17:55:24
  Les 8min10 591 Alexkekedu71 14/03/09 23:53:00
  le comparo est biaisé de toute façon 406 Cédric [RS2]  Membre RS-Team 19/03/09 13:56:26
  Pneu homologué 517 Kique 03/04/09 00:21:21
  Comment part une légende urbaine... 575 olivierrs 15/03/09 13:09:00
  Faut pas être fou ! 526 Greg_106xs 15/03/09 13:12:24
  Oui, surement 533 olivierrs 15/03/09 13:25:56
  euh ... 525 Cedric224 14/03/09 19:37:18
  RST_Taliban un pseudo 502 RS Family  Membre RS-Team 14/03/09 23:53:05
  En effet... 457 RST_Taliban 15/03/09 04:36:28
  honnêtement 640 Antoine 14/03/09 09:21:39
  Comme dit mon fillo .... 574 Madpierrot[RS1] 14/03/09 09:33:05
  Chez sub 562 nicofovo 14/03/09 10:06:35
  C'est déjà fait... 362 olivierrs 14/03/09 11:38:55
  C'est deja le cas en rallye 477 tOO 06/04/09 17:59:10
  La concurrence a du bon 626 nicofovo 14/03/09 10:08:00
  ptite video 663 jordi  Membre RS-Team 14/03/09 10:50:48
  sympa les journaleux ! 633 S-XVI 14/03/09 11:51:01
  et la ligne blanche 586 Antoine 15/03/09 10:47:57
  surtout 542 C3RS 15/03/09 13:15:06
  Roadtests 738 RS Family  Membre RS-Team 16/03/09 21:32:10
  ... 575 RickyRS1  Membre RS-Team 16/03/09 21:44:43
  New movie 528 RS Family  Membre RS-Team 20/03/09 23:08:52
  Waaaaaaoooouuuuuuuhhhhhhh !! 754 Kobalt 17/03/09 18:51:11
  Mêmes conclusions que Motorsport 610 olivierrs 17/03/09 19:08:01
  Mince alors 613 Ben38 [RS2]  Membre RS-Team 17/03/09 19:18:18
  Oui, attendons mais... 538 Kobalt 17/03/09 22:57:31
  Comme toute les renaults 559 Ben38 [RS2]  Membre RS-Team 18/03/09 06:07:20
  il n'y a pas que ca 525 Loïc  Membre RS-Team 18/03/09 09:22:46
  On est où??? 540 Bill 18/03/09 09:35:34
  allez hop celle là tu l'as gagné 500 Loïc  Membre RS-Team 18/03/09 09:38:20
  ... 525 Romain [RS2]  Membre RS-Team 18/03/09 11:43:33
  Ca c'est bon 596 clio2lrs  Membre RS-Team 17/03/09 19:36:26
  Ouais et puis aussi 557 Cédric [RS2]  Membre RS-Team 17/03/09 19:54:09
  niveau pneus 381 Romain [RS2]  Membre RS-Team 18/03/09 11:45:57
  plus 3550 € de CG 580 Loïc  Membre RS-Team 17/03/09 21:23:00
  ça y est... 623 RickyRS1  Membre RS-Team 17/03/09 20:04:17
  need !! 571 rhyllo 17/03/09 20:15:43
  Intéressant! 583 RS2ni  Membre RS-Team 17/03/09 20:17:46
  Aucun problème dans ces conditions de route, 570 Kobalt 17/03/09 22:50:59
  Ok!! 580 RS2ni  Membre RS-Team 17/03/09 23:27:36
  C'est quoi cette combine 566 Ben38 [RS2]  Membre RS-Team 18/03/09 06:09:31
  +1... 517 RickyRS1  Membre RS-Team 18/03/09 08:02:06
  1 +1 +1 = 516 RS Family  Membre RS-Team 18/03/09 08:51:11
  On en parle ce soir 541 stephanois63  Membre RS-Team 18/03/09 10:22:00
  Vous aimeriez savoir hein??? 591 RS2ni  Membre RS-Team 18/03/09 13:02:54
  dit nous quand meme pas... 537 RickyRS1  Membre RS-Team 18/03/09 13:14:38
  Tu veux aller a GG ou pas ??? 499 stephanois63  Membre RS-Team 18/03/09 16:11:55
  Réponse... 535 RS2ni  Membre RS-Team 19/03/09 13:01:53
  Avec toi 534 Ben38 [RS2]  Membre RS-Team 18/03/09 19:07:59
  je pars sur les 5 ans 527 RickyRS1  Membre RS-Team 18/03/09 19:11:45
  C'est pas un monospace 496 clio2lrs  Membre RS-Team 18/03/09 19:13:31
  ah si... 556 RickyRS1  Membre RS-Team 18/03/09 19:32:03
  Yes!!! 475 RS2ni  Membre RS-Team 19/03/09 13:03:10
  moi je sais 493 stephanois63  Membre RS-Team 19/03/09 01:37:31
  Chut!!! 510 RS2ni  Membre RS-Team 19/03/09 13:03:55
  Pas la mienne 482 stephanois63  Membre RS-Team 19/03/09 13:27:28
  bon 614 Cédric [RS2]  Membre RS-Team 17/03/09 20:47:51
  Ne t'inquiète pas 505 clio2lrs  Membre RS-Team 17/03/09 20:51:44
  Arf 575 Cédric [RS2]  Membre RS-Team 17/03/09 20:55:40
  on s'en branle 552 Loïc  Membre RS-Team 17/03/09 21:26:35
  oui 509 stephanois63  Membre RS-Team 17/03/09 21:56:36
  sur route 590 Cédric [RS2]  Membre RS-Team 17/03/09 22:27:24
  C'est certain 569 Kobalt 17/03/09 22:45:50
  1ère version moyenne ? 471 Madpierrot[RS1] 19/03/09 13:29:56
  ben 508 Cédric [RS2]  Membre RS-Team 19/03/09 13:53:05
  Ouais c'est clair ! 502 Madpierrot[RS1] 19/03/09 22:16:01
  Merci pour ton avis....Ca ne fais 599 baboonst170 17/03/09 22:00:37
  D'après eux, 618 Kobalt 17/03/09 22:53:57
  aïe aïe aïe 645 Antoine 17/03/09 22:18:52
  +10000 623 rhyllo 18/03/09 18:26:16
  moi 548 ptiR26 18/03/09 19:05:31
  Non 533 Kobalt 19/03/09 09:27:33
  Tout juste!!! 566 RS2ni  Membre RS-Team 19/03/09 13:05:01
  tu m'as l'air bien renseigné... 525 LoïcRS2  Membre RS-Team 19/03/09 14:04:10
  les essais presse sont unanimes 590 Antoine 19/03/09 20:47:54
  catalogue 584 cliofan 20/03/09 09:02:05
  Décote 564 rhyllo 20/03/09 13:51:23
  Faible décote (par rapport aux autres sportives) 610 olivierrs 20/03/09 15:09:25
  Turbo 606 rhyllo 21/03/09 19:32:51
  ... 607 RS2ni  Membre RS-Team 21/03/09 19:34:59
  Euhhh, 411 Olive[mrstrophy]  Membre RS-Team 21/03/09 19:44:55
  Y'a comme un anachronisme , non??? 590 RS2ni  Membre RS-Team 21/03/09 20:49:08
  Bah c'est simple 566 stephanois63  Membre RS-Team 21/03/09 20:57:59
  En espérant qu'elle répète 599 clio2lrs  Membre RS-Team 22/03/09 09:24:02
  déja à l'essai aujourd'hui dans direct auto sur... 681 Gerald la poste 21/03/09 21:19:29
  c'est par ici... 514 cliofan 25/03/09 16:47:52
  pas mal... 509 C3RS 25/03/09 17:48:58
  Ca me fait tjs bizar ... 463 Bretzel 26/03/09 05:46:34
  Question technique 629 Loïc  Membre RS-Team 24/03/09 14:29:09
  Tout ce que je peux te dire 662 Kobalt 24/03/09 14:34:43
  ben ouais, mais... 602 C3RS 24/03/09 19:17:02
  Mouais... 553 olivierrs 24/03/09 19:43:05
  Ford parle d'innovation concernant.... 555 Olive[mrstrophy]  Membre RS-Team 28/03/09 16:02:23
  Le principe est le même, mais... 577 Kobalt 28/03/09 16:35:07
  Expications en détails 1028 cliofan 28/03/09 20:07:34
  Explication en vidéo 566 cliofan 28/03/09 20:10:58
  Merci pour 499 RS Family  Membre RS-Team 29/03/09 00:34:19
  Merci pour 473 nicofovo 29/03/09 12:07:36
  faudra 508 Romain [RS2]  Membre RS-Team 30/03/09 14:48:17
  elle va faire mal 489 ouRS02 31/03/09 11:42:24
  d'un autre côté avec 305 ch 520 Loïc  Membre RS-Team 31/03/09 12:32:24
  Pression turbo 666 AlexV 24/03/09 15:19:14
  2 bars 494 maboul222 05/05/09 21:05:09
  B.A.R au bar... 532 stupid 05/05/09 21:07:05
  possible 537 Romain [RS2]  Membre RS-Team 06/05/09 10:53:29
  Essai sur AB Moteur 744 Bad 27/03/09 12:01:11
  C'est pas à l'échappement 572 Kobalt 27/03/09 18:32:38
  c'est comme 569 RickyRS1  Membre RS-Team 27/03/09 18:40:51
  bi-mode 569 C3RS 27/03/09 20:43:19
  10/10 562 ptiR26 28/03/09 11:15:01
  à l'échappement 582 Antoine 28/03/09 11:21:19
  ce soir dans Turbo 614 Snoop30 28/03/09 14:01:31
  C'est sûr que chez Citroën 500 Kobalt 28/03/09 14:18:40
  Bah si, la 583 xav 28/03/09 17:25:34
  comme disais Kobalt 674 Snoop30 28/03/09 19:46:59
  il a rien compris le journaleux 607 jordi  Membre RS-Team 28/03/09 19:55:12
  Pfff bidon cet essai... 572 Pascal RS2 29/03/09 12:39:18
  comme d'hab chez turbo :-) 584 Madpierrot[RS1] 29/03/09 13:31:33
  vivement que mister chachatte revienne 578 Loïc  Membre RS-Team 29/03/09 13:53:27
  Totalement d'accord! 512 captainkuru 01/04/09 12:13:10
  a quand un essai sur circuit en vidéo 404 ouRS02 01/04/09 12:54:19
  Essai vidéo Motors TV 628 cliofan 30/03/09 14:44:13
  Essai vidéo par Autodeclics 537 cliofan 31/03/09 20:47:02
  Essai vidéo circuit de Zolder ( Belgique) 593 cliofan 11/04/09 20:36:58
  C'est le reportage 458 KurtPanzR[RS2004] 12/04/09 12:01:07
  Un article dans Option Auto 630 KurtPanzR[RS2004] 31/03/09 13:12:27
  Et sinon sur le ring 494 Kique 31/03/09 21:51:13
  va falloir attendre un petit peu 598 Loïc  Membre RS-Team 31/03/09 21:57:43
  Voila j'ai craqué 660 rhyllo 31/03/09 22:52:10
  Moi ... 606 C3RS 31/03/09 23:28:02
  peux-tu 466 heresse 01/04/09 11:53:19
  En concession 593 rhyllo 01/04/09 12:56:17
  et... 563 C3RS 01/04/09 12:59:37
  combien 543 rhyllo 01/04/09 13:38:24
  il me semble que c'est 2600 le malus 435 Loïc  Membre RS-Team 01/04/09 13:22:41
  Je ne crois pas 525 rhyllo 01/04/09 13:35:14
  Oui effectivement 496 Drool1 01/04/09 13:51:18
  non. 496 C3RS 01/04/09 13:40:27
  méa culpa c'est 225g Co2 et 21 CV 458 Loïc  Membre RS-Team 01/04/09 13:46:58
  Clair que sa doit 525 Drool1 01/04/09 14:04:49
  D'autant 559 rhyllo 01/04/09 14:11:40
  Ca y est le temps est tombé !!! 580 Bill 01/04/09 14:28:36
  Sources 546 rhyllo 01/04/09 14:32:11
  C'est Bill 573 stephanois63  Membre RS-Team 01/04/09 14:50:52
  ne t'en fait pas.... 450 Bill 01/04/09 15:58:37
  oui en mangeant le mur 552 Loïc  Membre RS-Team 01/04/09 15:01:01
  Remarque la R26R...... 577 baboonst170 01/04/09 15:20:41
  oui c'est vrai 509 Loïc  Membre RS-Team 01/04/09 17:23:50
  Oui mais 517 baboonst170 01/04/09 18:32:41
  merci 485 Loïc  Membre RS-Team 01/04/09 18:34:37
  sur le forum focus st 564 jordi  Membre RS-Team 01/04/09 18:42:14
  bon ben 530 jordi  Membre RS-Team 01/04/09 20:14:46
  Ca y est je viens de comprendre 528 Kique 01/04/09 21:31:53
  Essai Moniteur 626 olivierrs 01/04/09 19:13:43
  Euh oui je pense 559 RS Family  Membre RS-Team 01/04/09 19:32:59
  Mais données constructeur en norme UE 507 olivierrs 01/04/09 19:38:32
  De toute façon.... 572 RST_Taliban 01/04/09 20:00:16
  tu portes pas ton pseudo pour rien 526 Ben38 [RS2]  Membre RS-Team 01/04/09 20:24:20
  Hi hi hi 559 RST_Taliban 01/04/09 20:33:59
  C'est toi 509 Ben38 [RS2]  Membre RS-Team 01/04/09 20:48:40
  Oui, en effet 570 RST_Taliban 01/04/09 20:53:16
  ok.... 506 Ben38 [RS2]  Membre RS-Team 01/04/09 20:56:10
  Comparo 801 rhyllo 08/04/09 19:00:14
  snif 614 ptiR26 09/04/09 17:41:16
  il est ici 626 stephanois63  Membre RS-Team 09/04/09 19:10:40
  cool 597 ptiR26 09/04/09 19:47:46
  Même comparo... 643 cliofan 09/04/09 18:02:26
  raté 473 peuf RS2 13/04/09 13:35:12
  photo du ring 677 jordi  Membre RS-Team 15/04/09 19:24:42
  On verra bien... 581 RST_Taliban 16/04/09 14:09:49
  Test 502 neo37  Membre RS-Team 16/04/09 14:31:19
  j'adore l'accent belge 567 ouRS02 16/04/09 14:58:49
  Focus RS en glisse... 794 Obi-1  Membre RS-Team 03/05/09 12:13:21
  Ring 513 stupid 03/05/09 23:05:04
  C'est bon ça mon sergio ! 614 Pedro Lito 03/05/09 23:10:58
  Et une toute neuve dans les prés, une... 862 Will38 26/05/09 18:05:22
  La pauvre 632 nicofovo 26/05/09 19:40:46
  ouvreur 559 deuxsanscinqgti 26/05/09 20:54:25
  Certes mais... 492 RS2ni  Membre RS-Team 26/05/09 21:36:28
  remonté d'info 592 lordsidney 27/05/09 10:22:11
  ou alors 524 anthonyRS3  Membre RS-Team 28/05/09 08:46:07
  ou encore 535 RS2ni  Membre RS-Team 28/05/09 13:00:57
  Fallait prendre une Mégane... 559 captainkuru 28/05/09 10:56:04
  hummm 516 Romain [RS2]  Membre RS-Team 28/05/09 11:47:55
  Nuance 510 anthonyRS3  Membre RS-Team 28/05/09 12:28:31
  Pas de news 639 Romain [RS2]  Membre RS-Team 28/05/09 11:48:34
  Bah non pas de news 547 Kique 28/05/09 23:10:06
  ah oui quand même 3 sec d'écart 578 Loïc  Membre RS-Team 28/05/09 23:31:26
  Ca explique 519 RS Family  Membre RS-Team 29/05/09 00:47:17
  Par contre sur une petite route de montagne 556 Loïc  Membre RS-Team 29/05/09 08:28:22
  C'est pas déjà fait?! 489 RS Family  Membre RS-Team 29/05/09 08:56:28
  y-a des R aussi dans les ronds points 459 Loïc  Membre RS-Team 29/05/09 11:12:11
  t'es un mytho toi 555 Romain [RS2]  Membre RS-Team 29/05/09 11:27:35
  qu'est-ce qu'il veut le malabar 567 Loïc  Membre RS-Team 29/05/09 11:31:58
  8min25? 680 jordi  Membre RS-Team 29/05/09 19:18:40
  merci 640 Obi-1  Membre RS-Team 29/05/09 19:55:19
  Mouais... 549 olivierrs 05/06/09 18:19:04
  hé hé 578 C3RS 05/06/09 18:34:53
  J'adore leurs essaies... 497 romain66.rs1Black 05/06/09 22:17:44
  Pourquoi pas, mais... 433 olivierrs 06/06/09 10:12:23
  t'as bien raison 548 Glambee 05/06/09 23:16:03
  Bien dit mon Nico 383 phil 06/06/09 09:21:14
  1 seconde et non huit 536 olivierrs 06/06/09 10:17:24
  visiblement ton conducteur 455 Glambee 06/06/09 10:46:57
  Mais... 518 olivierrs 07/06/09 18:38:28
  tout à fait 521 Loïc  Membre RS-Team 07/06/09 22:57:29
  ouais super 552 Romain [RS2]  Membre RS-Team 08/06/09 12:49:41
  Oui 534 neo37  Membre RS-Team 08/06/09 12:54:16
  Amusant... 503 olivierrs 09/06/09 19:38:30
  donc pour te rejoindre 513 Loïc  Membre RS-Team 09/06/09 21:32:06
  Focus RS 517 Romain [RS2]  Membre RS-Team 10/06/09 13:05:33
  Sans toyo, la config de base de la R 470 olivierrs 12/06/09 18:17:34
  Il n'en démord pas celui-là 488 aldo 12/06/09 23:46:53
  ah oui 474 Romain [RS2]  Membre RS-Team 13/06/09 10:34:24
  attendons de voir 659 Loïc  Membre RS-Team 30/05/09 11:45:04
  Alors là... 598 RST_Taliban 31/05/09 16:14:30
  Bien sur! 584 captainkuru 02/06/09 09:21:23
  Et si 586 KurtPanzR[RS2004] 02/06/09 14:22:00
  Golf S3 ? 596 olivierrs 06/06/09 10:19:44
  Quattro n'est qu'un mot. 501 captainkuru 10/06/09 12:18:39
  Le Taliban a parlé... 523 Nick [S2000] 07/06/09 18:52:03
  Débat sans limites 464 neo37  Membre RS-Team 07/06/09 20:56:00
  Totalement d'accord pour la FRS Mk1 487 captainkuru 10/06/09 12:29:39
  Communiqué de presse ! Chrono Silverstone ! 639 Jérome  Membre RS-Team 08/06/09 17:22:01
  ouais mais bon 547 Romain [RS2]  Membre RS-Team 08/06/09 17:46:42
  mouarf... 444 Obi-1  Membre RS-Team 08/06/09 17:50:52
  Il faut tout de même avouer que... 543 dante 09/06/09 21:52:47
  On peut rien comparer alors! 509 captainkuru 10/06/09 12:42:30
  gain de temps 399 francoisR27 11/06/09 12:51:26
  Alors là... 504 RST_Taliban 11/06/09 14:14:52
  lol j'adore 483 Drool1 11/06/09 14:27:05
  mouais 441 Romain [RS2]  Membre RS-Team 11/06/09 14:58:20
  oui mais 480 heresse 11/06/09 17:53:43
  D'accord 497 dante 11/06/09 23:07:36
  non non 424 phil 12/06/09 07:07:57
  Qu'est ce qui suit ? 680 rhyllo 10/06/09 18:23:05
  Oui, oui... 582 Obi-1  Membre RS-Team 10/06/09 18:28:44
  mais 575 Romain [RS2]  Membre RS-Team 10/06/09 18:41:09
  Vraiment 566 nicofovo 10/06/09 18:46:17
  Bien vu 553 RS Family  Membre RS-Team 10/06/09 18:54:04
  Sinon 574 rhyllo 10/06/09 19:00:08
  Je pense pas 632 RS Family  Membre RS-Team 10/06/09 19:07:45
  C3rs... 573 stupid 10/06/09 21:40:15
  Bien dit 547 RS Family  Membre RS-Team 10/06/09 22:01:59
  Au risque d'être traité encore de talib... 474 captainkuru 11/06/09 07:49:27
  Chassis 518 rhyllo 11/06/09 08:06:10
  Enfin la FRS 622 Drool1 11/06/09 12:41:53
  Impressionnant... 513 olivierrs 12/06/09 18:23:57
  Rien qu'a l"oreille 581 Drool1 11/06/09 19:23:31
  mdr 510 Romain [RS2]  Membre RS-Team 12/06/09 11:11:50
  oui les commentaires 519 Drool1 12/06/09 12:27:22
  oui puis.... 571 tOO 12/06/09 13:47:35
  j'adore cette portion ! 543 Maranello 12/06/09 16:03:39
  sacré bourre ! 523 Snoop30 12/06/09 16:36:25
  Arrêtez de rever les mecs ! 516 Baltus 12/06/09 17:03:10
  lol t'as déjà vu une focus RS avec 550 Loïc  Membre RS-Team 12/06/09 17:10:26
  Ha ha 544 stupid 12/06/09 17:13:19
  Mouais 496 papijulo 12/06/09 17:23:06
  c'est une traction 485 Romain [RS2]  Membre RS-Team 12/06/09 17:37:34
  benn 508 Romain [RS2]  Membre RS-Team 12/06/09 17:35:07
  mouuui....je m'incline ! 497 Baltus 12/06/09 18:24:26
  Et voici la réponse 653 iPod 17/06/09 12:50:48
  il a l'air ravi 522 Loïc  Membre RS-Team 17/06/09 13:00:29
  Bon on connait tous... 570 RST_Taliban 17/06/09 13:11:48
  Il ne faut pas... 414 rhyllo 17/06/09 13:36:55
  Ok donc... 520 tOO 17/06/09 13:53:54
  M'enfin... 538 RST_Taliban 17/06/09 13:55:23
  commentaire du journaliste 509 Romain [RS2]  Membre RS-Team 17/06/09 14:34:32
  Ah bon 486 tOO 17/06/09 15:06:23
  Hum...je peux extrapoler aussi 502 RST_Taliban 17/06/09 15:22:47
  oui... 468 tOO 17/06/09 17:39:19
  bah,... 490 C3RS 17/06/09 21:39:25
  Mouarf... 507 Obi-1  Membre RS-Team 17/06/09 15:37:12
  conditionnel 446 Romain [RS2]  Membre RS-Team 17/06/09 18:12:19
  Le pilote de la focus 480 jandb 17/06/09 18:26:23
  oui 528 C3RS 17/06/09 21:42:41
  donc pareille contre la Megane .... 515 Cedric224 17/06/09 15:05:01
  ba logiquement 484 Drool1 17/06/09 16:00:59
  Même 468 rhyllo 17/06/09 14:29:50
  la cup 519 Boooo 17/06/09 14:20:32
  Ca serait ... 532 rhyllo 17/06/09 14:31:00
  Oui!!! 475 neo37  Membre RS-Team 17/06/09 16:38:36
  La vache 539 phil 17/06/09 13:28:12
  Hi hi hi.... 515 RST_Taliban 17/06/09 13:30:20
  Apres avoir vu une video pareille 507 phil 17/06/09 13:31:43
  tout dépend ce que l'on recherche 491 Loïc  Membre RS-Team 17/06/09 13:34:40
  Mdr 490 neo37  Membre RS-Team 17/06/09 16:41:03
  Je vois juste une diff.... 494 Bill 17/06/09 17:17:12
  Facile... 477 Julien [Trophy] 17/06/09 17:52:28
  Bah c'est simple 460 RS Family  Membre RS-Team 17/06/09 19:05:53
  C'est vrai 491 RS Family  Membre RS-Team 17/06/09 19:09:42
  Donnons la parole à TOP GEAR : 619 olivierrs 12/06/09 18:27:03
  Pas très cohérente cette conclusion 514 Obi-1  Membre RS-Team 12/06/09 18:37:51
  Et pourquoi ? 537 olivierrs 12/06/09 18:47:02
  je suis d'accord avec toi 507 Loïc  Membre RS-Team 12/06/09 18:51:10
  et la montagne ? 497 olivierrs 12/06/09 18:56:23
  et encore 480 Loïc  Membre RS-Team 12/06/09 19:00:52
  Ah ? 478 olivierrs 12/06/09 19:24:27
  du côté de Briançon 513 Loïc  Membre RS-Team 12/06/09 19:55:33
  Parce que... 358 Obi-1  Membre RS-Team 12/06/09 23:30:41
  Et un petit comparatif avec la R26 645 olivierrs 12/06/09 18:33:27
  ben si pour toi 534 Loïc  Membre RS-Team 12/06/09 18:37:32
  Pourquoi dissocier 555 Drool1 12/06/09 18:49:47
  Décidément 529 olivierrs 12/06/09 18:54:02
  Tres differentes 504 Drool1 12/06/09 19:03:35
  Sources ? 526 olivierrs 12/06/09 19:12:49
  J'avais vu dans des essais 331 Drool1 12/06/09 20:20:33
  ?... 559 olivierrs 12/06/09 18:51:07
  En conclusion 560 Drool1 12/06/09 19:00:30
  Compléments 519 olivierrs 12/06/09 19:16:34
  C'est clair 503 Drool1 12/06/09 20:17:28
  Plus de 2 années... 742 Ferry 13/06/09 10:34:20
  ha ha 572 Romain [RS2]  Membre RS-Team 13/06/09 10:39:32
  en même temps 563 Snoop30 13/06/09 11:09:41
  Ouai mais au moins 540 Drool1 13/06/09 12:34:26
  La question est : 568 RST_Taliban 14/06/09 18:35:50
  moué bon, 557 Gmac 15/06/09 08:53:41
  Up! 647 RS Family  Membre RS-Team 19/06/09 22:00:14
  oui mais par contre 547 m362 19/06/09 22:30:41
  sur le 0-160 626 Cédric [RS2]  Membre RS-Team 20/06/09 01:09:04
  Donne moi le volant 15 mns de ta R 595 phil 20/06/09 08:10:25
  lol 545 Cédric [RS2]  Membre RS-Team 20/06/09 13:21:45
  essai 321 575 C3RS 10/07/09 15:40:38
  Ca doit etre 357 nicofovo 10/07/09 16:47:57
  Comparo Top Gear VS R26R / Auto Mobil VS 135i 690 cliofan 13/07/09 19:45:10
  + laptime by the Stig 599 aldo 13/07/09 22:20:41
  On voit bien 552 nicofovo 14/07/09 10:35:28
  n'empêche... 553 C3RS 14/07/09 13:34:03
  pas sur que les toyos fassent quelque chose 501 Loïc  Membre RS-Team 15/07/09 20:34:30
  Pilote 373 nicofovo 16/07/09 19:04:19
  Temps officiel sur le ring ... 486 Kique 05/08/09 19:17:53
  Ptdrrrrrrrrrrrr 564 phil 05/08/09 19:37:13
  C'est clair ! 517 Obi-1  Membre RS-Team 05/08/09 19:52:57
  Ah ça je savais pas 477 phil 05/08/09 20:16:02
  mais euh 471 Loïc  Membre RS-Team 05/08/09 20:34:36
  Evidement 306 phil 05/08/09 20:41:30
  ben... 500 C3RS 05/08/09 19:53:37
  Même joueur 511 stephanois63  Membre RS-Team 05/08/09 19:48:42
  j'ai pas l'impression 545 Loïc  Membre RS-Team 05/08/09 20:03:03
  t'as eu la meme impression que moi 468 jordi  Membre RS-Team 05/08/09 20:10:06
  Toi 489 stephanois63  Membre RS-Team 05/08/09 20:34:10
  et vi 509 jordi  Membre RS-Team 05/08/09 20:47:57
  c'est marrant 483 Cédric [RS2]  Membre RS-Team 05/08/09 22:39:09
  C'est surtout que le montage... 454 Ultimate Titine 07/08/09 18:16:34
  bon en même temps 529 Cédric [RS2]  Membre RS-Team 05/08/09 22:37:32
  Oui mais ! 482 aldo 05/08/09 22:40:46
  ah non pas d'accord 493 Cédric [RS2]  Membre RS-Team 05/08/09 22:42:55
  Horst Von Saurma 536 Kique 05/08/09 23:40:08
  ah ok 509 Cédric [RS2]  Membre RS-Team 06/08/09 13:10:53
  il avait testé la R26.R 497 Prophet [RS2] 07/08/09 18:51:03
  ben... 475 C3RS 07/08/09 22:34:36
  L'article en Allemand : 558 Obi-1  Membre RS-Team 06/08/09 12:24:46
  Sympa 475 nicofovo 15/08/09 17:27:09
  Reprog FOCUS RS2 690 havana_club_2b 09/08/09 15:07:36
  fiabilité 602 spat 09/08/09 15:38:28
  Autre reprog déjà dispo 610 olivierrs 14/08/09 16:42:22
  reprog 422 Cédric [RS2]  Membre RS-Team 14/08/09 16:58:32
  les anglais... 573 Greg_106xs 14/08/09 17:02:26
  volvo 300 Sebgti42 14/08/09 17:10:08
  ouais 500 cv sur une traction 565 Cédric [RS2]  Membre RS-Team 14/08/09 17:15:46
  j'ai pas dit le contraire .... 524 Greg_106xs 14/08/09 18:39:13
  moi j'ai deja la mienne, quelques photos 848 jeanlouis88240 18/09/09 17:00:35
  en blanc ! 524 Snoop30 18/09/09 17:04:08
  Y'a pas 551 nicofovo 18/09/09 20:34:24
  Elle est superbe 480 phil 18/09/09 20:49:04
  Magnifique 443 neo37  Membre RS-Team 19/09/09 22:16:37
  Société 582 dante 21/09/09 22:05:44
  Société 529 Snoop30 22/09/09 10:07:03
  échangeur 546 dante 22/09/09 21:51:02
  nouvelle voiture de la gendarmerie? 662 jordi  Membre RS-Team 24/11/09 10:36:52
  Y se font pas chier 578 Drool1 24/11/09 10:49:07
  C'est l'état qui paye 564 Loïc  Membre RS-Team 24/11/09 12:06:51
  Oui c'est nous 471 Drool1 24/11/09 12:22:48
  de toute façon 494 Loïc  Membre RS-Team 24/11/09 12:48:46
  Apparemment pour le moment 497 Alexkekedu71 24/11/09 19:16:08
  vu ce jour... 575 romain66.rs1Black 06/12/09 19:10:37
  y a pas qu'au Luc à mon avis 488 Snoop30 07/12/09 09:07:37
  photos [1-5] 708 XTCalex 07/12/09 11:21:24
  Photos [6-9] 580 XTCalex 07/12/09 11:23:08
  y a de bien belles autos par chez toi 561 Snoop30 07/12/09 11:54:01
  Pas besoin 496 XTCalex 08/12/09 11:29:30
  kikadikelétéridikul ? 488 Snoop30 08/12/09 11:52:44
  oui, t'en fait pas 534 XTCalex 09/12/09 12:45:17
  superbes photos 500 Antoine 07/12/09 19:28:08
  vivement le rodage fini 482 XTCalex 08/12/09 11:35:19
  jolies photos 577 Romain [RS2]  Membre RS-Team 07/12/09 11:58:19
  belles images 537 math_67 07/12/09 13:21:16
  Ca flash ! 493 XTCalex 08/12/09 11:32:42
  8min sur le ring!!! 675 jordi  Membre RS-Team 13/12/09 18:40:53
  voiture modifié 596 C3RS 13/12/09 18:42:56
  Temps officiel Nurburgring 670 aldo 13/12/09 18:56:34
  Est ce que l'on sait 594 RS Family  Membre RS-Team 13/12/09 19:23:24
  oui 610 jordi  Membre RS-Team 13/12/09 19:43:10
  t'a une traduction Jordi stp ? 564 Snoop30 13/12/09 19:58:14
  modifs 677 rhyllo 13/12/09 20:25:36
  quelques modifs 633 Loïc  Membre RS-Team 13/12/09 21:23:24
  Rs-r 658 rhyllo 13/12/09 22:08:36
  26 sec de mieux 532 Greg_106xs 15/12/09 08:33:07
  en fait je fais la comparaison avec une R stock 539 Loïc  Membre RS-Team 15/12/09 08:43:13
  Il me semble 530 rhyllo 15/12/09 11:24:46
  en fait je viens de voir 517 Loïc  Membre RS-Team 15/12/09 11:31:05
  Et bah 495 rhyllo 15/12/09 12:05:24
  merci pour la traduction 593 Snoop30 14/12/09 08:37:22
  rs2 637 jeanlouis88240 15/12/09 11:37:57
  en meme temps le ring 393 Jaja[RS2] 16/12/09 13:05:39
  C'est quoi son truc ? 531 Greg_106xs 16/12/09 15:18:49
  La montagne 516 rhyllo 16/12/09 18:27:16
  T'en es sur ? 536 Greg_106xs 17/12/09 13:01:27
  Pas sûr du tout que ce soit son terrain ... 529 Pedro Lito 17/12/09 13:48:24
  C'est amusant on dit 479 Drool1 17/12/09 15:08:13
  Tout à fait en ligne avec tes dires ... 503 Pedro Lito 17/12/09 15:27:12
  Le soucis c'est l'utilisation 487 Drool1 17/12/09 18:03:31
  Moi je veux une sportive 524 Greg_106xs 17/12/09 20:07:12
  Un gtt bien pimenté 288 Pedro Lito 17/12/09 20:20:12
  Oula pas besoin........ 471 Greg_106xs 18/12/09 10:08:54
  Le 1400 est une bonne base 486 Yannick31 18/12/09 11:44:21
  plus 1 525 stephanois63  Membre RS-Team 17/12/09 20:25:25


Index du forums | Index des forums | Recherche | Identification
Information
Cette discussion est verrouillée

GT2i Allopneus Addict Auto GT performance Jester Creation Allianz JMJ

© RS TEAM 2002 - 2019 - webmaster@rs-team.org